Location: Newark
(7.0858°N, 171.3717°E)
Time: 14:51:06
(UTC+00:00)

Courier 1B Rocket - Pass Details

Date: 03 December 2020
Orbit: 920 x 1202 km, 28.2° (Epoch: 20 January)

Event Time Altitude Azimuth Distance (km) Brightness Sun altitude
Rises 21:36:30 0° 309° (NW) 4,069 7.8 39.4°
Reaches altitude 10° 21:39:37 10° 317° (NW) 3,084 7.3 40.1°
Maximum altitude 21:46:39 39° 24° (NNE) 1,644 6.5 41.4°
Drops below altitude 10° 21:53:17 10° 90° (E) 2,920 8.2 42.7°
Sets 21:56:10 0° 98° (E) 3,832 8.7 43.3°
